User: anonymous   Login
Location: NJAA Observatory
(40.6819°N, 74.8979°W)
Time: 20:51:39
(UTC-04:00)
Language:

Cosmos 2237 Rocket - Orbit

View from above orbital plane
View from above orbital plane
View from above satellite
View from above satellite

Ground track
Ground track

The orbit data is extracted from the following two-line orbital elements,

1 22566U 93016B   17203.55426732 -.00000299 +00000-0 -13008-3 0  9994
2 22566 071.0068 352.6872 0008110 076.9367 283.2661 14.14947980256262
Epoch (UTC): 22 July 2017 13:18:08
Eccentricity: 0.0008110
inclination: 71.0068°
perigee height: 836 km
apogee height: 848 km
right ascension of ascending node: 352.6872°
argument of perigee: 76.9367°
revolutions per day: 14.14947980
mean anomaly at epoch: 283.2661°
orbit number at epoch: 25626

The dashed part of the orbit path shows where the satellite is in the earth's shadow,  

DLR